Date,TemperatureHighF,TemperatureAvgF,TemperatureLowF,DewpointHighF,DewpointAvgF,DewpointLowF,HumidityHigh,HumidityAvg,HumidityLow,PressureMaxIn,PressureMinIn,WindSpeedMaxMPH,WindSpeedAvgMPH,GustSpeedMaxMPH,PrecipitationSumIn
2012-9-6,75,72,70,71,70,68,97,93,83,29.91,29.87,3,0,0,0.02
2012-9-7,83,74,69,75,71,68,99,90,75,29.95,29.87,10,2,14,0.00
2012-9-8,81,77,68,76,73,64,95,88,82,29.84,29.64,21,7,26,0.12
2012-9-9,76,66,61,65,58,53,94,77,51,29.88,29.75,11,1,14,0.05
2012-9-10,72,66,62,58,52,44,80,62,43,30.06,29.85,16,4,17,0.00
2012-9-11,71,65,60,55,50,44,83,59,45,30.29,30.22,10,2,14,0.00
2012-9-12,76,67,56,63,59,53,94,75,50,30.38,30.29,12,2,14,0.00
2012-9-13,76,68,59,65,62,58,96,80,66,30.39,30.29,11,2,15,0.00
2012-9-14,76,69,62,66,63,61,97,83,66,30.30,30.10,11,3,14,0.00
2012-9-15,72,67,60,64,56,48,94,68,47,30.10,30.03,15,3,17,0.00
2012-9-16,72,64,58,55,52,49,76,64,47,30.13,30.03,9,2,13,0.00
2012-9-17,75,64,50,59,55,49,97,74,48,30.12,30.05,9,2,0,0.00
2012-9-18,76,72,65,70,67,56,88,83,72,30.07,29.73,24,6,29,0.00
2012-9-21,67,60,54,57,54,53,97,83,63,30.07,30.02,10,1,14,0.00
2012-9-22,72,63,52,68,59,51,98,87,70,30.02,29.83,18,2,23,0.00
2012-9-23,71,63,50,68,52,43,93,69,40,30.10,29.84,19,2,19,0.01
2012-9-24,66,57,48,54,46,40,96,68,43,30.16,30.09,10,1,13,0.00
2012-9-25,70,63,52,58,49,41,76,61,50,30.21,30.15,17,5,21,0.00
2012-9-26,72,69,65,65,62,57,91,79,71,30.17,30.03,17,6,22,0.00
2012-9-27,75,68,64,65,62,60,93,84,63,30.20,30.04,9,2,12,0.01
2012-9-28,65,64,62,62,57,55,89,79,75,30.21,30.13,13,4,18,0.00
2012-9-30,61,58,56,52,51,50,84,79,66,29.80,29.76,8,3,0,0.00
2012-10-1,69,60,52,55,51,47,93,74,57,29.99,29.80,20,4,23,0.00
2012-10-2,73,63,54,67,59,52,98,88,59,30.06,29.97,6,1,0,0.18
2012-10-3,70,67,65,68,66,64,99,97,92,30.12,29.99,5,1,0,0.01
2012-10-4,70,66,65,67,65,64,99,98,90,30.15,30.03,6,1,0,0.26
2012-10-5,66,65,63,65,64,63,99,99,96,30.07,30.02,4,0,0,0.00
2012-10-12,55,50,46,41,32,26,69,50,39,30.38,30.13,18,5,21,0.00
2012-10-13,53,49,45,43,36,30,71,60,44,30.43,30.32,8,2,0,0.00
2012-10-14,67,61,52,59,53,43,85,74,65,30.33,29.99,19,6,23,0.00
2012-10-15,69,66,61,63,61,59,95,85,79,29.99,29.64,20,7,22,0.01
2012-10-16,61,55,49,60,45,39,95,68,51,29.91,29.60,21,4,21,0.02
2012-10-17,56,50,41,46,41,37,94,73,58,30.02,29.90,10,1,0,0.00
2012-10-18,65,55,43,58,50,42,99,86,64,30.09,30.01,11,1,0,0.00
2012-10-19,68,65,60,66,63,58,98,94,87,30.01,29.70,14,3,22,0.39
2012-10-20,72,64,58,66,58,42,99,82,51,29.82,29.66,20,3,20,0.00
2012-10-21,64,58,53,48,45,42,74,60,49,29.98,29.82,17,4,17,0.00
2012-10-22,65,60,55,52,47,43,73,63,50,30.07,29.97,16,4,17,0.00
2012-10-23,66,59,52,54,49,43,95,70,48,30.13,30.05,7,1,0,0.07
2012-10-24,57,55,53,54,52,49,97,89,79,30.22,30.11,8,2,13,0.05
2012-10-25,62,56,51,53,50,48,96,81,62,30.29,30.21,8,1,0,0.00
2012-10-26,68,60,54,58,55,52,94,83,66,30.25,30.13,8,1,0,0.00
2012-10-27,64,60,57,57,54,46,92,81,64,30.13,29.93,14,2,14,0.00
2012-10-28,61,57,55,54,51,45,89,81,66,29.93,29.64,27,8,28,0.00
2012-10-29,61,57,54,60,54,50,98,89,84,29.64,28.87,42,12,43,0.02
2012-11-5,39,37,35,25,22,20,58,54,50,30.17,30.10,11,2,0,0.00
2012-11-6,42,36,28,33,23,20,75,60,43,30.25,30.09,18,2,18,0.00
2012-11-7,41,39,34,37,33,27,91,80,60,30.09,29.67,29,10,32,0.12
2012-11-8,41,36,35,33,32,31,90,84,73,29.84,29.65,30,10,30,0.26
2012-11-9,53,46,38,37,30,23,74,54,35,30.18,29.83,21,6,25,0.00
2012-11-10,54,49,42,44,40,36,88,71,57,30.45,30.17,12,2,17,0.00
2012-11-11,61,53,41,53,48,39,97,85,64,30.52,30.44,13,3,15,0.00
2012-11-12,64,57,50,60,55,49,98,94,83,30.50,30.23,15,3,15,0.00
2012-11-13,61,52,42,59,49,31,98,88,62,30.43,30.15,18,5,18,0.10
2012-11-14,48,42,39,35,30,27,73,62,45,30.50,30.42,18,4,18,0.00
2012-11-15,39,38,36,34,33,29,87,83,69,30.44,30.30,6,0,0,0.00
2012-11-16,46,42,36,36,32,26,87,69,48,30.37,30.27,9,2,0,0.00
2012-11-17,41,38,34,36,34,33,96,89,76,30.65,30.60,2,0,0,0.00
2012-11-18,48,42,36,40,37,34,97,81,63,30.68,30.58,17,2,17,0.00
2012-11-19,49,44,39,43,39,35,90,82,75,30.59,30.24,14,3,14,0.00
2012-11-20,49,42,38,42,38,36,94,87,72,30.24,30.12,9,2,13,0.00
2012-11-21,52,45,39,41,38,36,92,78,58,30.24,30.14,14,2,15,0.00
2012-11-22,55,44,37,46,41,36,97,88,63,30.27,30.14,11,1,0,0.00
2012-11-23,54,45,35,48,42,34,99,92,76,30.14,29.68,12,2,0,0.00
2012-11-24,50,43,37,47,28,20,93,57,39,29.78,29.62,21,8,30,0.00
2012-11-25,41,38,36,26,23,20,61,55,47,29.95,29.78,24,8,24,0.00
2012-11-26,47,39,32,29,25,23,85,58,41,30.27,29.95,21,4,21,0.00
2012-11-27,42,37,32,37,34,28,96,90,71,30.32,30.18,16,2,16,0.66
2012-11-28,42,38,36,35,30,24,95,75,56,30.24,30.14,14,5,18,0.00
2012-11-29,44,39,36,31,28,25,74,63,51,30.34,30.24,17,6,18,0.00
2012-11-30,43,38,32,35,30,26,82,72,58,30.48,30.31,20,4,23,0.00
2012-12-1,47,40,36,45,37,32,95,88,78,30.55,30.43,21,5,21,0.00
2012-12-2,54,50,46,50,47,44,97,91,85,30.26,30.11,17,4,19,0.00
2012-12-3,57,50,39,50,47,38,97,88,71,30.30,30.09,14,3,15,0.00
2012-12-4,56,48,36,54,47,35,99,97,93,30.31,30.02,13,2,0,0.04
2012-12-5,55,48,35,53,42,21,98,80,54,30.20,29.90,21,6,22,0.02
2012-12-6,39,32,27,25,21,18,81,65,52,30.36,30.19,17,3,20,0.00
2012-12-7,47,40,26,44,36,21,97,85,69,30.30,30.04,5,0,0,0.03
2012-12-8,52,48,45,52,47,44,98,97,95,30.04,29.87,9,2,13,0.47
2012-12-9,48,46,42,48,44,39,99,92,76,30.25,30.00,17,2,17,0.21
2012-12-10,59,56,48,59,55,48,99,98,97,30.03,29.56,20,5,20,1.17
2012-12-11,56,45,38,55,39,28,99,79,61,30.20,29.56,9,3,15,0.10
2012-12-12,42,38,35,29,27,26,73,65,54,30.45,30.19,12,2,12,0.00
2012-12-13,44,37,31,32,28,25,87,71,49,30.47,30.32,12,1,0,0.00
2012-12-14,50,41,33,35,29,25,77,62,41,30.32,30.12,14,3,16,0.00
2012-12-15,47,41,37,35,32,29,86,70,52,30.32,30.22,11,2,0,0.00
2012-12-16,44,42,41,43,39,34,97,88,75,30.26,29.92,23,6,28,0.13
2012-12-17,48,45,43,47,44,42,99,98,97,29.92,29.68,22,6,22,0.41
2012-12-18,52,48,44,52,47,40,99,95,79,29.68,29.46,19,4,21,0.59
2012-12-19,49,44,39,41,33,29,83,66,53,30.08,29.54,26,8,26,0.00
2012-12-20,44,40,36,40,33,29,85,74,66,30.22,29.94,16,3,19,0.00
2012-12-21,56,44,38,56,38,29,98,78,65,29.94,29.13,34,8,35,0.21
2012-12-22,39,37,36,34,26,20,87,64,49,29.76,29.32,33,11,35,0.00
2012-12-23,42,38,35,30,26,22,69,61,51,29.95,29.76,23,7,25,0.00
2012-12-24,40,36,32,34,26,22,95,67,50,30.10,29.93,16,2,16,0.04
2012-12-25,39,36,31,38,33,23,97,89,71,30.25,29.90,14,4,17,0.17
2012-12-26,42,34,27,41,29,20,97,80,67,30.28,29.56,42,7,43,0.00
2012-12-27,46,40,34,45,38,26,98,90,73,29.75,29.20,41,10,41,0.13
2012-12-28,38,34,29,27,25,20,82,70,62,30.07,29.75,25,6,27,0.00
2012-12-29,38,33,28,36,31,25,97,91,81,30.04,29.41,15,3,21,0.40
2012-12-30,35,32,28,32,22,14,96,67,48,30.10,29.48,27,11,33,0.03
2012-12-31,38,33,26,28,22,14,75,66,54,30.15,29.84,22,6,23,0.00
2013-1-1,40,36,27,31,25,12,71,62,51,29.98,29.80,23,7,24,0.01